Location: Lane
(33.5226°N, 79.8788°W)
Time: 10:04:12
(UTC+00:00)

Altair - Pass Details

Date: 10 October 2022
Orbit: 1501 x 1682 km, 47.2° (Epoch: 30 November)

Event Time Altitude Azimuth Distance (km) Brightness Sun altitude
Rises 05:24:27 0° 185° (S) 4,642 - -62.8°
Reaches altitude 10° 05:28:21 10° 171° (S) 3,684 - -62.7°
Maximum altitude 05:34:57 22° 125° (SE) 2,900 - -62.3°
Drops below altitude 10° 05:41:41 10° 79° (E) 3,788 - -61.9°
Exits shadow 05:43:27 - 72° (ENE) 4,213 10.0 -61.8°
Sets 05:45:43 0° 65° (ENE) 4,808 10.4 -61.6°
